ZL3DRP Weather Reports


time (UTC)temp
F
wind
direction
speed
knots
gust
knots
rain 1hr
in
rain 24hr
in
rain mn
in
humidity
%
barometer
mb
20260510081503 45 335 3.5 5.2 0.01 0.35 0.35 87 1006.2
20260510081003 45 336 2.6 5.2 0.01 0.35 0.35 87 1006.1
20260510080503 45 336 2.6 5.2 0.01 0.35 0.35 87 1006.1
20260510080003 45 336 2.6 4.3 0.02 0.35 0.35 87 1006.0
20260510075524 45 337 2.6 5.2 0.03 0.35 0.35 87 1005.9
20260510075003 45 332 2.6 5.2 0.04 0.35 0.35 87 1005.9
20260510074503 45 331 1.7 4.3 0.05 0.35 0.35 87 1005.9
20260510074003 45 334 1.7 4.3 0.06 0.35 0.35 87 1005.8
20260510073503 45 335 1.7 4.3 0.06 0.35 0.35 87 1005.6
20260510073024 45 336 1.7 4.3 0.06 0.35 0.35 87 1005.6
20260510072524 45 335 2.6 5.2 0.06 0.34 0.34 87 1005.4
20260510072003 45 334 2.6 5.2 0.06 0.34 0.34 87 1005.3
20260510071503 45 338 1.7 4.3 0.07 0.34 0.34 87 1005.1
20260510071003 45 328 0.9 4.3 0.07 0.34 0.34 87 1005.1
20260510070503 45 286 0.0 2.6 0.08 0.34 0.34 87 1004.9
20260510070024 45 264 0.0 1.7 0.06 0.32 0.33 87 1004.9
20260510065503 46 264 0.9 0.9 0.06 0.31 0.31 87 1004.7
20260510065003 45 264 0.9 1.7 0.06 0.31 0.31 87 1004.6
20260510064503 46 259 0.9 2.6 0.05 0.30 0.30 87 1004.4
20260510064003 46 210 0.9 2.6 0.04 0.29 0.29 87 1004.3
20260510063524 46 181 0.0 2.6 0.05 0.29 0.29 87 1004.3
20260510063024 46 180 0.0 1.7 0.06 0.28 0.28 87 1004.1
20260510062524 46 180 0.9 0.9 0.06 0.28 0.28 87 1003.9
20260510062003 46 180 0.9 1.7 0.07 0.28 0.28 87 1003.9
20260510061503 46 180 0.0 1.7 0.07 0.27 0.27 87 1003.8
20260510061003 46 180 0.9 0.9 0.09 0.27 0.27 87 1003.8
20260510060503 46 180 0.9 1.7 0.09 0.26 0.26 87 1003.6
20260510060003 46 180 0.9 1.7 0.09 0.26 0.26 87 1003.5
20260510055503 46 180 1.7 2.6 0.09 0.26 0.26 87 1003.4
20260510055003 46 178 1.7 4.3 0.09 0.25 0.25 87 1003.2
20260510054503 46 176 1.7 4.3 0.09 0.25 0.25 87 1003.1
20260510054003 46 164 1.7 4.3 0.09 0.25 0.25 87 1002.9
20260510053503 46 144 1.7 4.3 0.09 0.24 0.24 87 1002.9
20260510053003 46 108 1.7 4.3 0.07 0.23 0.23 87 1002.6
20260510052503 46 96 1.7 4.3 0.06 0.22 0.22 87 1002.5
20260510052024 46 122 1.7 3.5 0.05 0.20 0.20 87 1002.4
20260510051504 46 118 0.9 3.5 0.04 0.20 0.20 87 1002.2
20260510051003 46 21 0.9 3.5 0.02 0.18 0.18 87 1002.2
20260510050503 46 3 0.9 1.7 0.02 0.17 0.17 87 1002.2
20260510050024 46 2 1.7 1.7 0.01 0.17 0.17 87 1002.1
20260510045503 47 2 2.6 2.6 0.01 0.17 0.17 87 1001.9
20260510045003 47 2 2.6 3.5 0.00 0.16 0.16 87 1001.8
20260510044504 47 360 2.6 5.2 0.00 0.16 0.16 87 1001.6
20260510044003 47 9 2.6 5.2 0.00 0.16 0.16 87 1001.4
20260510043503 47 46 1.7 4.3 0.00 0.16 0.16 87 1001.4
20260510043024 47 94 1.7 4.3 0.00 0.16 0.16 87 1001.3
20260510042525 47 114 0.9 2.6 0.00 0.16 0.16 87 1001.3
20260510042003 47 115 0.9 2.6 0.00 0.16 0.16 87 1001.1
20260510041504 46 115 0.9 2.6 0.00 0.16 0.16 87 1001.0
20260510041003 46 130 0.9 3.5 0.00 0.16 0.16 87 1000.8
20260510040503 46 133 0.0 3.5 0.00 0.16 0.16 87 1000.7
20260510040024 47 101 0.9 1.7 0.00 0.16 0.16 87 1000.7
20260510035504 47 101 1.7 1.7 0.00 0.16 0.16 87 1000.5
20260510035024 46 112 1.7 5.2 0.00 0.16 0.16 87 1000.5
20260510034503 46 128 2.6 5.2 0.00 0.16 0.16 87 1000.4
20260510034003 47 143 2.6 7.0 0.00 0.16 0.16 87 1000.2
20260510033503 47 138 1.7 7.0 0.00 0.16 0.16 87 1000.0
20260510033024 47 126 1.7 4.3 0.00 0.16 0.16 87 999.9
20260510032503 47 130 1.7 5.2 0.00 0.16 0.16 87 999.9
20260510032003 47 144 1.7 5.2 0.01 0.16 0.16 87 999.7
20260510031503 48 158 2.6 4.3 0.01 0.16 0.16 87 999.6
20260510031025 48 151 2.6 6.1 0.01 0.16 0.16 87 999.4
20260510030503 48 151 1.7 6.1 0.01 0.16 0.16 87 999.4
20260510030004 48 156 2.6 5.2 0.02 0.16 0.16 87 999.3
20260510025503 48 157 2.6 7.0 0.02 0.16 0.16 87 999.1
20260510025003 48 162 3.5 7.0 0.03 0.16 0.16 87 999.0
20260510024503 48 173 2.6 7.0 0.03 0.16 0.16 87 998.9
20260510024003 48 177 2.6 7.0 0.03 0.16 0.16 87 998.7
20260510023503 48 162 2.6 7.0 0.03 0.16 0.16 87 998.6
20260510023004 48 152 1.7 7.0 0.03 0.16 0.16 87 998.5
20260510022504 48 162 1.7 4.3 0.04 0.16 0.16 87 998.5
20260510022003 48 160 2.6 5.2 0.03 0.15 0.15 87 998.4
20260510021503 48 138 2.6 6.1 0.03 0.15 0.15 87 998.3
20260510021025 48 140 2.6 6.1 0.03 0.15 0.15 87 998.3
20260510020503 48 150 2.6 6.1 0.04 0.15 0.15 86 998.1
20260510020003 48 146 2.6 6.1 0.04 0.14 0.14 86 998.0
20260510015503 48 150 3.5 7.0 0.04 0.13 0.13 86 997.9
20260510015003 48 160 3.5 9.6 0.04 0.13 0.13 86 997.7
20260510014524 48 162 3.5 9.6 0.05 0.13 0.13 86 997.7
20260510014003 48 178 3.5 7.8 0.05 0.13 0.13 86 997.7
20260510013503 49 190 4.3 8.7 0.06 0.13 0.13 86 997.7
20260510013003 49 192 4.3 8.7 0.06 0.13 0.13 86 997.5
20260510012504 49 190 3.5 7.8 0.06 0.12 0.12 86 997.5
20260510012003 49 182 3.5 7.8 0.06 0.12 0.12 86 997.4
20260510011524 49 176 4.3 7.8 0.07 0.12 0.12 86 997.5
20260510011004 48 166 4.3 11.3 0.08 0.12 0.12 85 997.5
20260510010504 48 151 4.3 11.3 0.08 0.11 0.11 85 997.5
20260510010003 49 144 4.3 10.4 0.08 0.10 0.10 85 997.5
20260510005503 50 160 3.5 10.4 0.08 0.09 0.09 85 997.5
20260510005003 50 167 3.5 7.0 0.07 0.09 0.09 85 997.4
20260510004503 50 157 3.5 7.8 0.07 0.08 0.08 85 997.4
20260510004004 50 156 3.5 7.8 0.08 0.08 0.08 85 997.5
20260510003503 50 165 3.5 8.7 0.07 0.07 0.07 84 997.6
20260510003004 50 179 2.6 8.7 0.07 0.07 0.07 84 997.5
20260510002503 51 187 2.6 8.7 0.06 0.06 0.06 84 997.5
20260510002003 51 177 2.6 6.1 0.06 0.06 0.06 84 997.4
20260510001504 51 173 1.7 5.2 0.05 0.05 0.05 84 997.1
20260510001002 51 189 1.7 4.3 0.04 0.04 0.04 84 997.2
20260510000502 51 188 2.6 4.3 0.03 0.03 0.03 84 997.4
20260510000002 51 173 3.5 5.2 0.02 0.02 0.02 83 997.3
20260509235502 51 177 4.3 7.8 0.02 0.02 0.02 83 997.2
20260509235002 51 189 4.3 7.8 0.02 0.02 0.02 83 997.1
20260509234502 51 190 5.2 9.6 0.01 0.01 0.01 83 997.2
20260509234002 52 190 5.2 9.6 0.00 0.00 0.00 82 997.2
20260509233524 52 187 5.2 10.4 0.00 0.00 0.00 82 997.1
20260509233002 52 174 4.3 10.4 0.00 0.00 0.00 82 997.0
20260509232502 52 160 5.2 12.2 0.00 0.00 0.00 82 996.8
20260509232002 52 161 6.1 12.2 0.00 0.00 0.00 82 996.6
20260509231502 53 166 6.1 13.0 0.00 0.00 0.00 82 996.6
20260509231002 53 172 6.1 13.0 0.00 0.00 0.00 82 996.6
20260509230502 54 175 7.0 13.0 0.00 0.00 0.00 82 996.5
20260509230003 54 175 7.0 12.2 0.00 0.00 0.00 83 996.5
20260509225502 54 180 7.0 13.0 0.00 0.00 0.00 83 996.2
20260509225002 54 183 7.0 13.9 0.00 0.00 0.00 83 996.1
20260509224502 54 188 7.8 13.9 0.00 0.00 0.00 82 995.9
20260509224002 55 193 8.7 14.8 0.00 0.00 0.00 82 995.8
20260509223502 55 195 9.6 16.5 0.00 0.00 0.00 83 995.5
20260509223003 55 197 9.6 16.5 0.00 0.00 0.00 83 995.1
20260509222502 54 193 9.6 16.5 0.00 0.00 0.00 83 994.9
20260509222023 54 192 9.6 16.5 0.00 0.00 0.00 83 994.7
20260509221503 54 192 10.4 20.9 0.00 0.00 0.00 82 994.4
20260509221002 54 190 10.4 20.9 0.00 0.00 0.00 81 994.2
20260509220503 55 194 10.4 18.2 0.00 0.00 0.00 79 994.1
20260509220002 55 191 9.6 20.0 0.00 0.00 0.00 75 993.9
20260509215502 57 188 7.8 20.0 0.00 0.00 0.00 68 993.8
20260509215003 61 208 7.8 15.6 0.00 0.00 0.00 58 993.6
20260509214503 63 257 8.7 14.8 0.00 0.00 0.00 50 993.2
20260509214003 63 259 8.7 14.8 0.00 0.00 0.00 49 992.5
20260509213503 62 252 8.7 14.8 0.00 0.00 0.00 49 992.2
20260509213003 62 253 9.6 14.8 0.00 0.00 0.00 49 992.1
20260509212502 62 258 10.4 19.1 0.00 0.00 0.00 49 991.8
20260509212002 62 258 11.3 21.7 0.00 0.00 0.00 50 991.8
20260509211503 62 249 11.3 21.7 0.00 0.00 0.00 49 991.6
20260509211024 62 253 12.2 19.1 0.00 0.00 0.00 49 991.6
20260509210503 62 269 11.3 23.5 0.00 0.00 0.00 49 991.4
20260509210003 62 268 10.4 23.5 0.00 0.00 0.00 49 991.3
20260509205503 62 252 10.4 20.9 0.00 0.00 0.00 49 991.1
20260509205003 61 250 11.3 20.9 0.00 0.00 0.00 49 991.0
20260509204502 61 249 11.3 20.9 0.00 0.00 0.00 49 991.1
20260509204002 61 254 11.3 18.2 0.00 0.00 0.00 49 991.0
20260509203502 61 253 11.3 20.0 0.00 0.00 0.00 49 991.0
20260509203003 61 253 10.4 22.6 0.00 0.00 0.00 50 990.7
20260509202503 61 256 11.3 22.6 0.00 0.00 0.00 49 990.7
20260509202003 61 253 11.3 18.2 0.00 0.00 0.00 50 990.6
20260509201524 61 241 11.3 18.2 0.00 0.00 0.00 49 990.5
20260509201002 61 234 12.2 17.4 0.00 0.00 0.00 49 990.6
20260509200524 60 252 11.3 21.7 0.00 0.00 0.00 50 990.6
20260509200002 61 268 10.4 21.7 0.00 0.00 0.00 49 990.5
20260509195503 60 267 10.4 20.0 0.00 0.00 0.00 50 990.6
20260509195024 60 258 10.4 20.0 0.00 0.00 0.00 49 990.4
20260509194503 60 263 9.6 20.9 0.00 0.00 0.00 50 990.5
20260509194002 60 262 9.6 20.9 0.00 0.00 0.00 50 990.5
20260509193503 60 254 10.4 16.5 0.00 0.00 0.00 49 990.4
20260509193003 60 252 10.4 17.4 0.00 0.00 0.00 49 990.4
20260509192503 61 261 10.4 20.0 0.00 0.00 0.00 49 990.3
20260509192003 61 265 10.4 20.0 0.00 0.00 0.00 49 990.3
20260509191502 60 250 10.4 19.1 0.00 0.00 0.00 49 990.1
20260509191003 60 257 10.4 20.0 0.00 0.00 0.00 49 990.0
20260509190524 61 269 10.4 20.0 0.00 0.00 0.00 49 990.0
20260509190024 61 270 9.6 20.0 0.00 0.00 0.00 49 990.1
20260509185524 60 275 9.6 20.0 0.00 0.00 0.00 49 989.9
20260509185002 61 282 9.6 17.4 0.00 0.00 0.00 49 990.0
20260509184503 61 276 11.3 17.4 0.00 0.00 0.00 49 989.8
20260509184002 61 280 12.2 26.1 0.00 0.00 0.00 49 989.8
20260509183503 61 276 12.2 26.1 0.00 0.00 0.00 49 989.8
20260509183002 61 266 13.0 22.6 0.00 0.00 0.00 49 989.8
20260509182503 61 277 13.0 26.9 0.00 0.00 0.00 49 989.8
20260509182003 61 278 12.2 26.9 0.00 0.00 0.00 48 989.7
20260509181524 61 267 12.2 22.6 0.00 0.00 0.00 48 989.7
20260509181003 61 271 12.2 23.5 0.00 0.00 0.00 48 989.7
20260509180524 61 281 13.0 25.2 0.00 0.00 0.00 48 989.7
20260509180024 61 275 13.9 25.2 0.00 0.00 0.00 47 989.6
20260509175503 62 277 13.9 25.2 0.00 0.00 0.00 47 989.4
20260509175003 62 279 13.0 25.2 0.00 0.00 0.00 47 989.4
20260509174502 61 278 13.0 23.5 0.00 0.00 0.00 47 989.2
20260509174003 61 275 12.2 23.5 0.00 0.00 0.00 47 989.3
20260509173503 61 273 10.4 23.5 0.00 0.00 0.00 47 989.3
20260509173002 61 279 9.6 19.1 0.00 0.00 0.00 47 989.2
20260509172503 61 283 8.7 17.4 0.00 0.00 0.00 47 989.3
20260509172024 61 271 8.7 17.4 0.00 0.00 0.00 47 989.3
20260509171502 61 262 8.7 16.5 0.00 0.00 0.00 47 989.4
20260509171002 61 273 9.6 16.5 0.00 0.00 0.00 47 989.3
20260509170524 61 268 9.6 15.6 0.00 0.00 0.00 47 989.3
20260509170002 62 270 11.3 17.4 0.00 0.00 0.00 46 989.3
20260509165503 62 270 11.3 22.6 0.00 0.00 0.00 46 989.4
20260509165003 62 269 11.3 22.6 0.00 0.00 0.00 46 989.2
20260509164503 61 267 10.4 22.6 0.00 0.00 0.00 47 989.2
20260509164002 61 275 10.4 22.6 0.00 0.00 0.00 47 989.0
20260509163503 61 282 10.4 19.1 0.00 0.00 0.00 47 989.0
20260509163003 61 280 10.4 18.2 0.00 0.00 0.00 48 989.0
20260509162503 61 277 10.4 18.2 0.00 0.00 0.00 48 989.0
20260509162003 61 283 8.7 18.2 0.00 0.00 0.00 48 989.1
20260509161502 61 286 8.7 15.6 0.00 0.00 0.00 48 989.1
20260509161003 61 280 9.6 14.8 0.00 0.00 0.00 48 989.1
20260509160503 61 282 10.4 16.5 0.00 0.00 0.00 48 989.2
20260509160003 61 291 9.6 20.9 0.00 0.00 0.00 47 989.0
20260509155502 61 298 9.6 20.9 0.00 0.00 0.00 47 989.2
20260509155002 61 291 9.6 15.6 0.00 0.00 0.00 47 989.3
20260509154503 61 281 10.4 15.6 0.00 0.00 0.00 48 989.2
20260509154024 60 279 11.3 21.7 0.00 0.00 0.00 48 989.2
20260509153503 60 281 11.3 21.7 0.00 0.00 0.00 48 989.2
20260509153003 60 273 12.2 21.7 0.00 0.00 0.00 49 989.4
20260509152524 60 273 12.2 21.7 0.00 0.00 0.00 49 989.5
20260509152002 60 276 12.2 20.0 0.00 0.00 0.00 49 989.4
20260509151523 60 286 11.3 20.9 0.00 0.00 0.00 50 989.5
20260509151002 60 295 12.2 20.9 0.00 0.00 0.00 51 989.6
20260509150503 60 293 12.2 24.3 0.00 0.00 0.00 51 989.5
20260509150003 60 298 12.2 24.3 0.00 0.00 0.00 51 989.7
20260509145503 60 299 12.2 24.3 0.00 0.00 0.00 51 989.6
20260509145023 60 292 12.2 20.0 0.00 0.00 0.00 52 989.8
20260509144524 60 292 13.0 20.0 0.00 0.00 0.00 52 989.9
20260509144024 60 299 13.0 22.6 0.00 0.00 0.00 52 989.9
20260509143503 60 299 13.0 22.6 0.00 0.00 0.00 52 989.8
20260509143024 60 297 13.9 22.6 0.00 0.00 0.00 52 990.0
20260509142503 60 300 13.9 23.5 0.00 0.00 0.00 52 990.0
20260509142003 60 300 13.9 26.1 0.00 0.00 0.00 52 990.2
20260509141524 60 300 13.9 26.1 0.00 0.00 0.00 52 990.3
20260509141003 60 300 13.0 22.6 0.00 0.00 0.00 51 990.2
20260509140524 60 296 11.3 25.2 0.00 0.00 0.00 52 990.1
20260509140002 60 289 11.3 25.2 0.00 0.00 0.00 52 990.4
20260509135503 60 286 12.2 25.2 0.00 0.00 0.00 51 990.5
20260509135003 60 286 12.2 25.2 0.00 0.00 0.00 51 990.6
20260509134524 60 289 12.2 24.3 0.00 0.00 0.00 51 990.6
20260509134024 60 288 11.3 24.3 0.00 0.00 0.00 51 990.6
20260509133503 60 289 12.2 19.1 0.00 0.00 0.00 51 990.5
20260509133003 60 294 12.2 20.9 0.00 0.01 0.00 50 990.3
20260509132503 59 296 12.2 22.6 0.00 0.01 0.00 50 990.4
20260509132024 59 297 12.2 22.6 0.00 0.01 0.00 50 990.6
20260509131503 60 296 12.2 21.7 0.00 0.01 0.00 51 990.6
20260509131002 60 297 12.2 20.9 0.00 0.01 0.00 50 990.7
20260509130502 59 299 11.3 19.1 0.00 0.02 0.00 51 990.7
20260509130003 59 299 11.3 20.9 0.00 0.02 0.00 51 990.9
20260509125503 59 298 12.2 20.9 0.00 0.03 0.00 51 990.9
20260509125024 59 302 12.2 23.5 0.00 0.03 0.00 51 991.0
20260509124524 59 302 12.2 23.5 0.00 0.05 0.00 51 990.9
20260509124003 59 298 11.3 22.6 0.00 0.06 0.00 51 990.9
20260509123503 59 297 10.4 22.6 0.00 0.08 0.00 51 991.1
20260509123003 59 296 10.4 16.5 0.00 0.09 0.00 51 991.2
20260509122503 59 299 10.4 18.2 0.00 0.11 0.00 51 991.1
20260509122003 59 300 10.4 18.2 0.00 0.11 0.00 50 991.2
20260509121524 59 304 10.4 18.2 0.00 0.11 0.00 50 991.2
20260509121024 59 305 10.4 18.2 0.00 0.12 0.00 50 991.2
20260509120503 59 304 11.3 20.0 0.00 0.12 0.00 50 991.3
20260509120024 59 306 11.3 20.0 0.00 0.12 0.00 50 991.2
20260509115503 59 303 11.3 17.4 0.00 0.12 0.12 50 991.3
20260509115024 59 300 11.3 20.0 0.00 0.12 0.12 50 991.4
20260509114503 59 304 10.4 20.0 0.00 0.13 0.12 50 991.4
20260509114003 59 308 9.6 19.1 0.00 0.13 0.12 50 991.5
20260509113503 59 306 8.7 17.4 0.00 0.13 0.12 50 991.4
20260509113024 59 304 8.7 17.4 0.00 0.13 0.12 51 991.4
20260509112503 59 306 7.8 13.9 0.00 0.13 0.12 51 991.4
20260509112003 59 312 7.8 13.9 0.00 0.13 0.12 51 991.5
20260509111503 59 313 7.8 14.8 0.00 0.13 0.12 51 991.6
20260509111003 59 310 8.7 14.8 0.00 0.13 0.12 50 991.6
20260509110503 59 313 9.6 17.4 0.00 0.13 0.12 50 991.8
20260509110003 59 314 8.7 20.0 0.00 0.13 0.12 50 991.8
20260509105524 59 311 8.7 20.0 0.00 0.14 0.12 50 991.8
20260509105003 59 311 8.7 14.8 0.00 0.14 0.12 50 991.7
20260509104503 59 313 9.6 14.8 0.00 0.14 0.12 50 991.6
20260509104003 59 314 9.6 17.4 0.00 0.14 0.12 50 991.5
20260509103503 59 310 10.4 21.7 0.00 0.14 0.12 50 991.5
20260509103003 59 310 11.3 21.7 0.00 0.14 0.12 49 991.6
20260509102503 59 309 10.4 20.0 0.00 0.14 0.12 49 991.6
20260509102003 59 307 9.6 18.2 0.00 0.14 0.12 49 991.5
20260509101503 59 309 8.7 18.2 0.00 0.14 0.12 49 991.4
20260509101003 59 309 8.7 17.4 0.00 0.14 0.12 49 991.4
20260509100503 59 311 9.6 17.4 0.00 0.14 0.12 48 991.4
20260509100004 59 311 9.6 17.4 0.00 0.14 0.12 48 991.2
20260509095503 59 314 9.6 16.5 0.00 0.14 0.12 48 991.3
20260509095003 59 315 8.7 18.2 0.00 0.14 0.12 48 991.2
20260509094503 59 311 7.8 18.2 0.00 0.14 0.12 48 991.2
20260509094003 59 313 7.8 17.4 0.00 0.14 0.12 48 991.1
20260509093524 59 314 8.7 17.4 0.00 0.14 0.12 48 991.2
20260509093003 59 315 8.7 17.4 0.00 0.14 0.12 48 991.0
20260509092503 59 312 8.7 16.5 0.00 0.14 0.12 48 991.0
20260509092024 59 306 8.7 17.4 0.00 0.14 0.12 48 990.9
20260509091503 59 303 9.6 17.4 0.00 0.14 0.12 48 990.9
20260509091003 59 303 9.6 15.6 0.00 0.14 0.12 48 990.9
20260509090503 59 304 9.6 15.6 0.00 0.14 0.12 48 990.9
20260509090024 59 307 9.6 16.5 0.00 0.14 0.12 48 990.8
20260509085503 59 307 8.7 16.5 0.00 0.14 0.12 48 990.8
20260509085003 59 306 8.7 15.6 0.00 0.14 0.12 48 990.8
20260509084503 59 306 8.7 16.5 0.00 0.14 0.12 49 990.7
20260509084003 59 308 8.7 16.5 0.00 0.14 0.12 49 990.8
20260509083524 58 309 8.7 16.5 0.00 0.14 0.12 49 990.8
20260509083003 58 306 8.7 17.4 0.00 0.14 0.12 49 990.8
20260509082503 59 304 8.7 17.4 0.00 0.14 0.12 49 990.8
20260509082003 59 305 8.7 19.1 0.00 0.14 0.12 49 990.9